Year,Month,Day,Hour,Minute,Value (Times are PST for temperature in C)
2012,07,30,00,00,14.00
2012,07,30,00,01,13.90
2012,07,30,00,02,13.90
2012,07,30,00,03,13.90
2012,07,30,00,04,13.90
2012,07,30,00,05,13.90
2012,07,30,00,06,13.90
2012,07,30,00,07,13.80
2012,07,30,00,08,13.80
2012,07,30,00,09,13.80
2012,07,30,00,10,13.80
2012,07,30,00,11,13.80
2012,07,30,00,12,13.80
2012,07,30,00,13,13.80
2012,07,30,00,14,13.80
2012,07,30,00,15,13.80
2012,07,30,00,16,13.80
2012,07,30,00,17,13.70
2012,07,30,00,18,13.70
2012,07,30,00,19,13.70
2012,07,30,00,20,13.70
2012,07,30,00,21,13.70
2012,07,30,00,22,13.60
2012,07,30,00,23,13.60
2012,07,30,00,24,13.60
2012,07,30,00,25,13.60
2012,07,30,00,26,13.50
2012,07,30,00,27,13.50
2012,07,30,00,28,13.50
2012,07,30,00,29,13.50
2012,07,30,00,30,13.40
2012,07,30,00,31,13.40
2012,07,30,00,32,13.40
2012,07,30,00,33,13.40
2012,07,30,00,34,13.50
2012,07,30,00,35,13.50
2012,07,30,00,36,13.50
2012,07,30,00,37,13.50
2012,07,30,00,38,13.50
2012,07,30,00,39,13.50
2012,07,30,00,40,13.50
2012,07,30,00,41,13.50
2012,07,30,00,42,13.50
2012,07,30,00,43,13.50
2012,07,30,00,44,13.60
2012,07,30,00,45,13.50
2012,07,30,00,46,13.50
2012,07,30,00,47,13.50
2012,07,30,00,48,13.50
2012,07,30,00,49,13.50
2012,07,30,00,50,13.40
2012,07,30,00,51,13.40
2012,07,30,00,52,13.40
2012,07,30,00,53,13.40
2012,07,30,00,54,13.40
2012,07,30,00,55,13.50
2012,07,30,00,56,13.50
2012,07,30,00,57,13.50
2012,07,30,00,58,13.50
2012,07,30,00,59,13.50
2012,07,30,01,00,13.50
2012,07,30,01,01,13.50
2012,07,30,01,02,13.50
2012,07,30,01,03,13.50
2012,07,30,01,04,13.50
2012,07,30,01,05,13.50
2012,07,30,01,06,13.50
2012,07,30,01,07,13.40
2012,07,30,01,08,13.40
2012,07,30,01,09,13.40
2012,07,30,01,10,13.40
2012,07,30,01,11,13.40
2012,07,30,01,12,13.40
2012,07,30,01,13,13.30
2012,07,30,01,14,13.30
2012,07,30,01,15,13.30
2012,07,30,01,16,13.30
2012,07,30,01,17,13.30
2012,07,30,01,18,13.20
2012,07,30,01,19,13.20
2012,07,30,01,20,13.20
2012,07,30,01,21,13.20
2012,07,30,01,22,13.20
2012,07,30,01,23,13.10
2012,07,30,01,24,13.10
2012,07,30,01,25,13.10
2012,07,30,01,26,13.10
2012,07,30,01,27,13.00
2012,07,30,01,28,13.00
2012,07,30,01,29,13.00
2012,07,30,01,30,12.90
2012,07,30,01,31,12.90
2012,07,30,01,32,12.90
2012,07,30,01,33,12.90
2012,07,30,01,34,12.90
2012,07,30,01,35,12.80
2012,07,30,01,36,12.80
2012,07,30,01,37,12.80
2012,07,30,01,38,12.80
2012,07,30,01,39,12.80
2012,07,30,01,40,12.80
2012,07,30,01,41,12.80
2012,07,30,01,42,12.80
2012,07,30,01,43,12.80
2012,07,30,01,44,12.80
2012,07,30,01,45,12.80
2012,07,30,01,46,12.80
2012,07,30,01,47,12.80
2012,07,30,01,48,12.70
2012,07,30,01,49,12.70
2012,07,30,01,50,12.70
2012,07,30,01,51,12.70
2012,07,30,01,52,12.70
2012,07,30,01,53,12.70
2012,07,30,01,54,12.60
2012,07,30,01,55,12.60
2012,07,30,01,56,12.60
2012,07,30,01,57,12.60
2012,07,30,01,58,12.50
2012,07,30,01,59,12.50
2012,07,30,02,00,12.50
2012,07,30,02,01,12.50
2012,07,30,02,02,12.40
2012,07,30,02,03,12.40
2012,07,30,02,04,12.40
2012,07,30,02,05,12.40
2012,07,30,02,06,12.40
2012,07,30,02,07,12.30
2012,07,30,02,08,12.30
2012,07,30,02,09,12.30
2012,07,30,02,10,12.30
2012,07,30,02,11,12.30
2012,07,30,02,12,12.30
2012,07,30,02,13,12.30
2012,07,30,02,14,12.30
2012,07,30,02,15,12.30
2012,07,30,02,16,12.30
2012,07,30,02,17,12.20
2012,07,30,02,18,12.20
2012,07,30,02,19,12.20
2012,07,30,02,20,12.20
2012,07,30,02,21,12.20
2012,07,30,02,22,12.20
2012,07,30,02,23,12.20
2012,07,30,02,24,12.20
2012,07,30,02,25,12.20
2012,07,30,02,26,12.20
2012,07,30,02,27,12.10
2012,07,30,02,28,12.10
2012,07,30,02,29,12.10
2012,07,30,02,30,12.10
2012,07,30,02,31,12.10
2012,07,30,02,32,12.00
2012,07,30,02,33,12.00
2012,07,30,02,34,12.00
2012,07,30,02,35,12.00
2012,07,30,02,36,12.00
2012,07,30,02,37,11.90
2012,07,30,02,38,11.90
2012,07,30,02,39,11.90
2012,07,30,02,40,11.90
2012,07,30,02,41,11.90
2012,07,30,02,42,11.90
2012,07,30,02,43,11.90
2012,07,30,02,44,11.80
2012,07,30,02,45,11.80
2012,07,30,02,46,11.80
2012,07,30,02,47,11.80
2012,07,30,02,48,11.80
2012,07,30,02,49,11.80
2012,07,30,02,50,11.80
2012,07,30,02,51,11.80
2012,07,30,02,52,11.80
2012,07,30,02,53,11.80
2012,07,30,02,54,11.80
2012,07,30,02,55,11.80
2012,07,30,02,56,11.80
2012,07,30,02,57,11.80
2012,07,30,02,58,11.80
2012,07,30,02,59,11.80
2012,07,30,03,00,11.80
2012,07,30,03,01,11.80
2012,07,30,03,02,11.80
2012,07,30,03,03,11.70
2012,07,30,03,04,11.70
2012,07,30,03,05,11.70
2012,07,30,03,06,11.70
2012,07,30,03,07,11.70
2012,07,30,03,08,11.70
2012,07,30,03,09,11.70
2012,07,30,03,10,11.70
2012,07,30,03,11,11.70
2012,07,30,03,12,11.70
2012,07,30,03,13,11.60
2012,07,30,03,14,11.60
2012,07,30,03,15,11.60
2012,07,30,03,16,11.60
2012,07,30,03,17,11.60
2012,07,30,03,18,11.60
2012,07,30,03,19,11.60
2012,07,30,03,20,11.60
2012,07,30,03,21,11.50
2012,07,30,03,22,11.50
2012,07,30,03,23,11.50
2012,07,30,03,24,11.50
2012,07,30,03,25,11.40
2012,07,30,03,26,11.40
2012,07,30,03,27,11.40
2012,07,30,03,28,11.40
2012,07,30,03,29,11.40
2012,07,30,03,30,11.40
2012,07,30,03,31,11.40
2012,07,30,03,32,11.40
2012,07,30,03,33,11.40
2012,07,30,03,34,11.40
2012,07,30,03,35,11.40
2012,07,30,03,36,11.40
2012,07,30,03,37,11.40
2012,07,30,03,38,11.40
2012,07,30,03,39,11.40
2012,07,30,03,40,11.30
2012,07,30,03,41,11.30
2012,07,30,03,42,11.30
2012,07,30,03,43,11.30
2012,07,30,03,44,11.30
2012,07,30,03,45,11.30
2012,07,30,03,46,11.30
2012,07,30,03,47,11.30
2012,07,30,03,48,11.20
2012,07,30,03,49,11.20
2012,07,30,03,50,11.20
2012,07,30,03,51,11.20
2012,07,30,03,52,11.20
2012,07,30,03,53,11.20
2012,07,30,03,54,11.20
2012,07,30,03,55,11.20
2012,07,30,03,56,11.20
2012,07,30,03,57,11.10
2012,07,30,03,58,11.10
2012,07,30,03,59,11.10
2012,07,30,04,00,11.10
2012,07,30,04,01,11.10
2012,07,30,04,02,11.10
2012,07,30,04,03,11.10
2012,07,30,04,04,11.10
2012,07,30,04,05,11.10
2012,07,30,04,06,11.10
2012,07,30,04,07,11.10
2012,07,30,04,08,11.10
2012,07,30,04,09,11.10
2012,07,30,04,10,11.10
2012,07,30,04,11,11.10
2012,07,30,04,12,11.10
2012,07,30,04,13,11.10
2012,07,30,04,14,11.00
2012,07,30,04,15,11.00
2012,07,30,04,16,11.00
2012,07,30,04,17,11.00
2012,07,30,04,18,10.90
2012,07,30,04,19,10.90
2012,07,30,04,20,10.90
2012,07,30,04,21,10.90
2012,07,30,04,22,10.90
2012,07,30,04,23,10.80
2012,07,30,04,24,10.80
2012,07,30,04,25,10.80
2012,07,30,04,26,10.80
2012,07,30,04,27,10.80
2012,07,30,04,28,10.80
2012,07,30,04,29,10.80
2012,07,30,04,30,10.80
2012,07,30,04,31,10.80
2012,07,30,04,32,10.80
2012,07,30,04,33,10.80
2012,07,30,04,34,10.80
2012,07,30,04,35,10.80
2012,07,30,04,36,10.80
2012,07,30,04,37,10.90
2012,07,30,04,38,10.90
2012,07,30,04,39,10.90
2012,07,30,04,40,10.90
2012,07,30,04,41,10.90
2012,07,30,04,42,10.90
2012,07,30,04,43,10.90
2012,07,30,04,44,10.90
2012,07,30,04,45,10.90
2012,07,30,04,46,10.90
2012,07,30,04,47,10.90
2012,07,30,04,48,10.90
2012,07,30,04,49,10.90
2012,07,30,04,50,10.90
2012,07,30,04,51,10.90
2012,07,30,04,52,10.90
2012,07,30,04,53,10.90
2012,07,30,04,54,10.80
2012,07,30,04,55,10.80
2012,07,30,04,56,10.80
2012,07,30,04,57,10.80
2012,07,30,04,58,10.80
2012,07,30,04,59,10.80
2012,07,30,05,00,10.80
2012,07,30,05,01,10.80
2012,07,30,05,02,10.80
2012,07,30,05,03,10.80
2012,07,30,05,04,10.80
2012,07,30,05,05,10.80
2012,07,30,05,06,10.80
2012,07,30,05,07,10.80
2012,07,30,05,08,10.80
2012,07,30,05,09,10.70
2012,07,30,05,10,10.80
2012,07,30,05,11,10.80
2012,07,30,05,12,10.80
2012,07,30,05,13,10.80
2012,07,30,05,14,10.80
2012,07,30,05,15,10.80
2012,07,30,05,16,10.80
2012,07,30,05,17,10.80
2012,07,30,05,18,10.80
2012,07,30,05,19,10.80
2012,07,30,05,20,10.80
2012,07,30,05,21,10.80
2012,07,30,05,22,10.80
2012,07,30,05,23,10.80
2012,07,30,05,24,10.80
2012,07,30,05,25,10.80
2012,07,30,05,26,10.80
2012,07,30,05,27,10.80
2012,07,30,05,28,10.80
2012,07,30,05,29,10.80
2012,07,30,05,30,10.80
2012,07,30,05,31,10.80
2012,07,30,05,32,10.80
2012,07,30,05,33,10.80
2012,07,30,05,34,10.80
2012,07,30,05,35,10.80
2012,07,30,05,36,10.80
2012,07,30,05,37,10.70
2012,07,30,05,38,10.70
2012,07,30,05,39,10.70
2012,07,30,05,40,10.70
2012,07,30,05,41,10.70
2012,07,30,05,42,10.70
2012,07,30,05,43,10.70
2012,07,30,05,44,10.80
2012,07,30,05,45,10.80
2012,07,30,05,46,10.80
2012,07,30,05,47,10.70
2012,07,30,05,48,10.70
2012,07,30,05,49,10.70
2012,07,30,05,50,10.70
2012,07,30,05,51,10.70
2012,07,30,05,52,10.70
2012,07,30,05,53,10.70
2012,07,30,05,54,10.70
2012,07,30,05,55,10.70
2012,07,30,05,56,10.70
2012,07,30,05,57,10.70
2012,07,30,05,58,10.70
2012,07,30,05,59,10.70
2012,07,30,06,00,10.70
2012,07,30,06,01,10.70
2012,07,30,06,02,10.80
2012,07,30,06,03,10.80
2012,07,30,06,04,10.80
2012,07,30,06,05,10.70
2012,07,30,06,06,10.70
2012,07,30,06,07,10.70
2012,07,30,06,08,10.70
2012,07,30,06,09,10.70
2012,07,30,06,10,10.70
2012,07,30,06,11,10.70
2012,07,30,06,12,10.70
2012,07,30,06,13,10.70
2012,07,30,06,14,10.70
2012,07,30,06,15,10.70
2012,07,30,06,16,10.70
2012,07,30,06,17,10.70
2012,07,30,06,18,10.70
2012,07,30,06,19,10.70
2012,07,30,06,20,10.70
2012,07,30,06,21,10.70
2012,07,30,06,22,10.70
2012,07,30,06,23,10.70
2012,07,30,06,24,10.70
2012,07,30,06,25,10.70
2012,07,30,06,26,10.70
2012,07,30,06,27,10.70
2012,07,30,06,28,10.70
2012,07,30,06,29,10.70
2012,07,30,06,30,10.80
2012,07,30,06,31,10.80
2012,07,30,06,32,10.80
2012,07,30,06,33,10.80
2012,07,30,06,34,10.80
2012,07,30,06,35,10.80
2012,07,30,06,36,10.80
2012,07,30,06,37,10.80
2012,07,30,06,38,10.80
2012,07,30,06,39,10.90
2012,07,30,06,40,10.90
2012,07,30,06,41,11.00
2012,07,30,06,42,11.00
2012,07,30,06,43,11.00
2012,07,30,06,44,11.00
2012,07,30,06,45,11.00
2012,07,30,06,46,11.00
2012,07,30,06,47,11.00
2012,07,30,06,48,11.00
2012,07,30,06,49,11.00
2012,07,30,06,50,11.00
2012,07,30,06,51,11.10
2012,07,30,06,52,11.10
2012,07,30,06,53,11.10
2012,07,30,06,54,11.10
2012,07,30,06,55,11.20
2012,07,30,06,56,11.20
2012,07,30,06,57,11.30
2012,07,30,06,58,11.30
2012,07,30,06,59,11.30
2012,07,30,07,00,11.40
2012,07,30,07,01,11.40
2012,07,30,07,02,11.50
2012,07,30,07,03,11.50
2012,07,30,07,04,11.60
2012,07,30,07,05,11.60
2012,07,30,07,06,11.70
2012,07,30,07,07,11.70
2012,07,30,07,08,11.80
2012,07,30,07,09,11.80
2012,07,30,07,10,11.90
2012,07,30,07,11,12.00
2012,07,30,07,12,12.10
2012,07,30,07,13,12.20
2012,07,30,07,14,12.30
2012,07,30,07,15,12.30
2012,07,30,07,16,12.40
2012,07,30,07,17,12.50
2012,07,30,07,18,12.50
2012,07,30,07,19,12.60
2012,07,30,07,20,12.70
2012,07,30,07,21,12.70
2012,07,30,07,22,12.70
2012,07,30,07,23,12.80
2012,07,30,07,24,12.90
2012,07,30,07,25,13.00
2012,07,30,07,26,13.10
2012,07,30,07,27,13.10
2012,07,30,07,28,13.20
2012,07,30,07,29,13.30
2012,07,30,07,30,13.40
2012,07,30,07,31,13.50
2012,07,30,07,32,13.50
2012,07,30,07,33,13.60
2012,07,30,07,34,13.70
2012,07,30,07,35,13.70
2012,07,30,07,36,13.80
2012,07,30,07,37,13.80
2012,07,30,07,38,13.80
2012,07,30,07,39,13.80
2012,07,30,07,40,13.80
2012,07,30,07,41,13.80
2012,07,30,07,42,13.80
2012,07,30,07,43,13.90
2012,07,30,07,44,13.90
2012,07,30,07,45,14.00
2012,07,30,07,46,14.00
2012,07,30,07,47,14.10
2012,07,30,07,48,14.10
2012,07,30,07,49,14.20
2012,07,30,07,50,14.20
2012,07,30,07,51,14.20
2012,07,30,07,52,14.20
2012,07,30,07,53,14.20
2012,07,30,07,54,14.20
2012,07,30,07,55,14.30
2012,07,30,07,56,14.30
2012,07,30,07,57,14.40
2012,07,30,07,58,14.40
2012,07,30,07,59,14.50
2012,07,30,08,00,14.60
2012,07,30,08,01,14.60
2012,07,30,08,02,14.70
2012,07,30,08,03,14.80
2012,07,30,08,04,14.90
2012,07,30,08,05,15.00
2012,07,30,08,06,15.00
2012,07,30,08,07,15.00
2012,07,30,08,08,15.10
2012,07,30,08,09,15.10
2012,07,30,08,10,15.10
2012,07,30,08,11,15.10
2012,07,30,08,12,15.10
2012,07,30,08,13,15.10
2012,07,30,08,14,15.10
2012,07,30,08,15,15.00
2012,07,30,08,16,15.00
2012,07,30,08,17,15.10
2012,07,30,08,18,15.10
2012,07,30,08,19,15.00
2012,07,30,08,20,15.00
2012,07,30,08,21,15.00
2012,07,30,08,22,15.00
2012,07,30,08,23,15.00
2012,07,30,08,24,14.90
2012,07,30,08,25,14.70
2012,07,30,08,26,14.60
2012,07,30,08,27,14.60
2012,07,30,08,28,14.50
2012,07,30,08,29,14.40
2012,07,30,08,30,14.40
2012,07,30,08,31,14.50
2012,07,30,08,32,14.50
2012,07,30,08,33,14.50
2012,07,30,08,34,14.50
2012,07,30,08,35,14.50
2012,07,30,08,36,14.50
2012,07,30,08,37,14.40
2012,07,30,08,38,14.40
2012,07,30,08,39,14.40
2012,07,30,08,40,14.40
2012,07,30,08,41,14.30
2012,07,30,08,42,14.30
2012,07,30,08,43,14.30
2012,07,30,08,44,14.30
2012,07,30,08,45,14.30
2012,07,30,08,46,14.30
2012,07,30,08,47,14.30
2012,07,30,08,48,14.30
2012,07,30,08,49,14.40
2012,07,30,08,50,14.40
2012,07,30,08,51,14.50
2012,07,30,08,52,14.50
2012,07,30,08,53,14.60
2012,07,30,08,54,14.70
2012,07,30,08,55,14.80
2012,07,30,08,56,14.80
2012,07,30,08,57,14.80
2012,07,30,08,58,14.80
2012,07,30,08,59,14.80
2012,07,30,09,00,14.80
2012,07,30,09,01,14.70
2012,07,30,09,02,14.70
2012,07,30,09,03,14.70
2012,07,30,09,04,14.70
2012,07,30,09,05,14.80
2012,07,30,09,06,14.80
2012,07,30,09,07,14.90
2012,07,30,09,08,15.00
2012,07,30,09,09,15.00
2012,07,30,09,10,15.00
2012,07,30,09,11,15.00
2012,07,30,09,12,15.10
2012,07,30,09,13,15.20
2012,07,30,09,14,15.30
2012,07,30,09,15,15.30
2012,07,30,09,16,15.30
2012,07,30,09,17,15.30
2012,07,30,09,18,15.30
2012,07,30,09,19,15.30
2012,07,30,09,20,15.30
2012,07,30,09,21,15.30
2012,07,30,09,22,15.30
2012,07,30,09,23,15.40
2012,07,30,09,24,15.40
2012,07,30,09,25,15.40
2012,07,30,09,26,15.50
2012,07,30,09,27,15.50
2012,07,30,09,28,15.50
2012,07,30,09,29,15.50
2012,07,30,09,30,15.50
2012,07,30,09,31,15.50
2012,07,30,09,32,15.50
2012,07,30,09,33,15.50
2012,07,30,09,34,15.40
2012,07,30,09,35,15.40
2012,07,30,09,36,15.40
2012,07,30,09,37,15.40
2012,07,30,09,38,15.40
2012,07,30,09,39,15.30
2012,07,30,09,40,15.30
2012,07,30,09,41,15.30
2012,07,30,09,42,15.30
2012,07,30,09,43,15.30
2012,07,30,09,44,15.30
2012,07,30,09,45,15.30
2012,07,30,09,46,15.30
2012,07,30,09,47,15.30
2012,07,30,09,48,15.30
2012,07,30,09,49,15.30
2012,07,30,09,50,15.30
2012,07,30,09,51,15.40
2012,07,30,09,52,15.40
2012,07,30,09,53,15.50
2012,07,30,09,54,15.60
2012,07,30,09,55,15.70
2012,07,30,09,56,15.70
2012,07,30,09,57,15.80
2012,07,30,09,58,15.90
2012,07,30,09,59,15.90
2012,07,30,10,00,15.90
2012,07,30,10,01,15.80
2012,07,30,10,02,15.80
2012,07,30,10,03,15.70
2012,07,30,10,04,15.70
2012,07,30,10,05,15.70
2012,07,30,10,06,15.70
2012,07,30,10,07,15.70
2012,07,30,10,08,15.70
2012,07,30,10,09,15.70
2012,07,30,10,10,15.70
2012,07,30,10,11,15.80
2012,07,30,10,12,15.70
2012,07,30,10,13,15.70
2012,07,30,10,14,15.70
2012,07,30,10,15,15.70
2012,07,30,10,16,15.70
2012,07,30,10,17,15.60
2012,07,30,10,18,15.60
2012,07,30,10,19,15.50
2012,07,30,10,20,15.50
2012,07,30,10,21,15.50
2012,07,30,10,22,15.50
2012,07,30,10,23,15.50
2012,07,30,10,24,15.50
2012,07,30,10,25,15.50
2012,07,30,10,26,15.60
2012,07,30,10,27,15.70
2012,07,30,10,28,15.70
2012,07,30,10,29,15.80
2012,07,30,10,30,15.80
2012,07,30,10,31,15.80
2012,07,30,10,32,15.80
2012,07,30,10,33,15.80
2012,07,30,10,34,15.80
2012,07,30,10,35,15.70
2012,07,30,10,36,15.70
2012,07,30,10,37,15.60
2012,07,30,10,38,15.60
2012,07,30,10,39,15.50
2012,07,30,10,40,15.50
2012,07,30,10,41,15.50
2012,07,30,10,42,15.50
2012,07,30,10,43,15.50
2012,07,30,10,44,15.60
2012,07,30,10,45,15.60
2012,07,30,10,46,15.60
2012,07,30,10,47,15.70
2012,07,30,10,48,15.60
2012,07,30,10,49,15.60
2012,07,30,10,50,15.70
2012,07,30,10,51,15.70
2012,07,30,10,52,15.70
2012,07,30,10,53,15.70
2012,07,30,10,54,15.70
2012,07,30,10,55,15.70
2012,07,30,10,56,15.70
2012,07,30,10,57,15.70
2012,07,30,10,58,15.70
2012,07,30,10,59,15.70
2012,07,30,11,00,15.70
2012,07,30,11,01,15.70
2012,07,30,11,02,15.70
2012,07,30,11,03,15.70
2012,07,30,11,04,15.70
2012,07,30,11,05,15.70
2012,07,30,11,06,15.70
2012,07,30,11,07,15.60
2012,07,30,11,08,15.60
2012,07,30,11,09,15.60
2012,07,30,11,10,15.70
2012,07,30,11,11,15.70
2012,07,30,11,12,15.70
2012,07,30,11,13,15.70
2012,07,30,11,14,15.80
2012,07,30,11,15,15.80
2012,07,30,11,16,15.80
2012,07,30,11,17,15.90
2012,07,30,11,18,15.90
2012,07,30,11,19,16.00
2012,07,30,11,20,16.10
2012,07,30,11,21,16.10
2012,07,30,11,22,16.10
2012,07,30,11,23,16.10
2012,07,30,11,24,16.10
2012,07,30,11,25,16.10
2012,07,30,11,26,16.10
2012,07,30,11,27,16.10
2012,07,30,11,28,16.20
2012,07,30,11,29,16.20
2012,07,30,11,30,16.30
2012,07,30,11,31,16.30
2012,07,30,11,32,16.40
2012,07,30,11,33,16.50
2012,07,30,11,34,16.60
2012,07,30,11,35,16.60
2012,07,30,11,36,16.70
2012,07,30,11,37,16.70
2012,07,30,11,38,16.70
2012,07,30,11,39,16.70
2012,07,30,11,40,16.70
2012,07,30,11,41,16.70
2012,07,30,11,42,16.70
2012,07,30,11,43,16.60
2012,07,30,11,44,16.50
2012,07,30,11,45,16.50
2012,07,30,11,46,16.40
2012,07,30,11,47,16.30
2012,07,30,11,48,16.30
2012,07,30,11,49,16.20
2012,07,30,11,50,16.20
2012,07,30,11,51,16.20
2012,07,30,11,52,16.20
2012,07,30,11,53,16.20
2012,07,30,11,54,16.30
2012,07,30,11,55,16.30
2012,07,30,11,56,16.30
2012,07,30,11,57,16.30
2012,07,30,11,58,16.40
2012,07,30,11,59,16.40
2012,07,30,12,00,16.30
2012,07,30,12,01,16.30
2012,07,30,12,02,16.30
2012,07,30,12,03,16.20
2012,07,30,12,04,16.20
2012,07,30,12,05,16.10
2012,07,30,12,06,16.10
2012,07,30,12,07,16.10
2012,07,30,12,08,16.10
2012,07,30,12,09,16.00
2012,07,30,12,10,15.90
2012,07,30,12,11,15.90
2012,07,30,12,12,15.90
2012,07,30,12,13,15.80
2012,07,30,12,14,15.80
2012,07,30,12,15,15.90
2012,07,30,12,16,15.90
2012,07,30,12,17,16.00
2012,07,30,12,18,16.00
2012,07,30,12,19,16.10
2012,07,30,12,20,16.10
2012,07,30,12,21,16.20
2012,07,30,12,22,16.20
2012,07,30,12,23,16.30
2012,07,30,12,24,16.30
2012,07,30,12,25,16.40
2012,07,30,12,26,16.50
2012,07,30,12,27,16.50
2012,07,30,12,28,16.50
2012,07,30,12,29,16.60
2012,07,30,12,30,16.60
2012,07,30,12,31,16.70
2012,07,30,12,32,16.70
2012,07,30,12,33,16.70
2012,07,30,12,34,16.70
2012,07,30,12,35,16.70
2012,07,30,12,36,16.70
2012,07,30,12,37,16.70
2012,07,30,12,38,16.80
2012,07,30,12,39,16.80
2012,07,30,12,40,16.70
2012,07,30,12,41,16.70
2012,07,30,12,42,16.70
2012,07,30,12,43,16.70
2012,07,30,12,44,16.80
2012,07,30,12,45,16.80
2012,07,30,12,46,16.90
2012,07,30,12,47,17.10
2012,07,30,12,48,17.20
2012,07,30,12,49,17.30
2012,07,30,12,50,17.40
2012,07,30,12,51,17.40
2012,07,30,12,52,17.50
2012,07,30,12,53,17.50
2012,07,30,12,54,17.60
2012,07,30,12,55,17.70
2012,07,30,12,56,17.70
2012,07,30,12,57,17.70
2012,07,30,12,58,17.70
2012,07,30,12,59,17.70
2012,07,30,13,00,17.80
2012,07,30,13,01,17.90
2012,07,30,13,02,18.00
2012,07,30,13,03,18.10
2012,07,30,13,04,18.20
2012,07,30,13,05,18.20
2012,07,30,13,06,18.20
2012,07,30,13,07,18.20
2012,07,30,13,08,18.20
2012,07,30,13,09,18.20
2012,07,30,13,10,18.30
2012,07,30,13,11,18.30
2012,07,30,13,12,18.20
2012,07,30,13,13,18.20
2012,07,30,13,14,18.10
2012,07,30,13,15,18.10
2012,07,30,13,16,18.00
2012,07,30,13,17,18.00
2012,07,30,13,18,18.00
2012,07,30,13,19,18.00
2012,07,30,13,20,17.90
2012,07,30,13,21,17.70
2012,07,30,13,22,17.60
2012,07,30,13,23,17.40
2012,07,30,13,24,17.40
2012,07,30,13,25,17.30
2012,07,30,13,26,17.30
2012,07,30,13,27,17.40
2012,07,30,13,28,17.50
2012,07,30,13,29,17.60
2012,07,30,13,30,17.70
2012,07,30,13,31,17.80
2012,07,30,13,32,17.90
2012,07,30,13,33,17.90
2012,07,30,13,34,18.00
2012,07,30,13,35,18.00
2012,07,30,13,36,18.00
2012,07,30,13,37,18.10
2012,07,30,13,38,18.20
2012,07,30,13,39,18.30
2012,07,30,13,40,18.40
2012,07,30,13,41,18.60
2012,07,30,13,42,18.70
2012,07,30,13,43,18.60
2012,07,30,13,44,18.70
2012,07,30,13,45,18.80
2012,07,30,13,46,19.00
2012,07,30,13,47,19.10
2012,07,30,13,48,19.10
2012,07,30,13,49,19.20
2012,07,30,13,50,19.10
2012,07,30,13,51,19.10
2012,07,30,13,52,19.00
2012,07,30,13,53,18.90
2012,07,30,13,54,18.80
2012,07,30,13,55,18.70
2012,07,30,13,56,18.60
2012,07,30,13,57,18.60
2012,07,30,13,58,18.60
2012,07,30,13,59,18.50
2012,07,30,14,00,18.50
2012,07,30,14,01,18.50
2012,07,30,14,02,18.50
2012,07,30,14,03,18.50
2012,07,30,14,04,18.60
2012,07,30,14,05,18.60
2012,07,30,14,06,18.50
2012,07,30,14,07,18.40
2012,07,30,14,08,18.40
2012,07,30,14,09,18.30
2012,07,30,14,10,18.30
2012,07,30,14,11,18.20
2012,07,30,14,12,18.20
2012,07,30,14,13,18.20
2012,07,30,14,14,18.20
2012,07,30,14,15,18.20
2012,07,30,14,16,18.20
2012,07,30,14,17,18.10
2012,07,30,14,18,18.00
2012,07,30,14,19,18.00
2012,07,30,14,20,18.00
2012,07,30,14,21,18.10
2012,07,30,14,22,18.10
2012,07,30,14,23,18.30
2012,07,30,14,24,18.40
2012,07,30,14,25,18.50
2012,07,30,14,26,18.60
2012,07,30,14,27,18.80
2012,07,30,14,28,18.90
2012,07,30,14,29,19.00
2012,07,30,14,30,19.10
2012,07,30,14,31,19.30
2012,07,30,14,32,19.20
2012,07,30,14,33,19.20
2012,07,30,14,34,19.20
2012,07,30,14,35,19.20
2012,07,30,14,36,19.20
2012,07,30,14,37,19.30
2012,07,30,14,38,19.30
2012,07,30,14,39,19.40
2012,07,30,14,40,19.40
2012,07,30,14,41,19.50
2012,07,30,14,42,19.60
2012,07,30,14,43,19.80
2012,07,30,14,44,19.90
2012,07,30,14,45,20.00
2012,07,30,14,46,20.20
2012,07,30,14,47,20.20
2012,07,30,14,48,20.20
2012,07,30,14,49,20.10
2012,07,30,14,50,20.00
2012,07,30,14,51,20.00
2012,07,30,14,52,20.00
2012,07,30,14,53,20.10
2012,07,30,14,54,20.20
2012,07,30,14,55,20.20
2012,07,30,14,56,20.20
2012,07,30,14,57,20.20
2012,07,30,14,58,20.10
2012,07,30,14,59,20.00
2012,07,30,15,00,19.90
2012,07,30,15,01,19.80
2012,07,30,15,02,19.80
2012,07,30,15,03,19.80
2012,07,30,15,04,19.70
2012,07,30,15,05,19.70
2012,07,30,15,06,19.80
2012,07,30,15,07,19.90
2012,07,30,15,08,20.00
2012,07,30,15,09,20.10
2012,07,30,15,10,20.20
2012,07,30,15,11,20.20
2012,07,30,15,12,20.20
2012,07,30,15,13,20.20
2012,07,30,15,14,20.20
2012,07,30,15,15,20.10
2012,07,30,15,16,20.10
2012,07,30,15,17,20.00
2012,07,30,15,18,20.00
2012,07,30,15,19,20.00
2012,07,30,15,20,20.00
2012,07,30,15,21,20.00
2012,07,30,15,22,19.90
2012,07,30,15,23,19.90
2012,07,30,15,24,20.00
2012,07,30,15,25,20.00
2012,07,30,15,26,20.10
2012,07,30,15,27,20.30
2012,07,30,15,28,20.40
2012,07,30,15,29,20.50
2012,07,30,15,30,20.60
2012,07,30,15,31,20.70
2012,07,30,15,32,20.80
2012,07,30,15,33,20.80
2012,07,30,15,34,20.80
2012,07,30,15,35,20.80
2012,07,30,15,36,20.80
2012,07,30,15,37,20.80
2012,07,30,15,38,20.80
2012,07,30,15,39,20.90
2012,07,30,15,40,21.00
2012,07,30,15,41,21.00
2012,07,30,15,42,21.10
2012,07,30,15,43,21.20
2012,07,30,15,44,21.40
2012,07,30,15,45,21.60
2012,07,30,15,46,21.80
2012,07,30,15,47,22.10
2012,07,30,15,48,22.30
2012,07,30,15,49,22.40
2012,07,30,15,50,22.40
2012,07,30,15,51,22.50
2012,07,30,15,52,22.70
2012,07,30,15,53,22.90
2012,07,30,15,54,22.90
2012,07,30,15,55,23.00
2012,07,30,15,56,23.00
2012,07,30,15,57,23.00
2012,07,30,15,58,23.00
2012,07,30,15,59,22.90
2012,07,30,16,00,22.80
2012,07,30,16,01,22.60
2012,07,30,16,02,22.50
2012,07,30,16,03,22.40
2012,07,30,16,04,22.40
2012,07,30,16,05,22.30
2012,07,30,16,06,22.30
2012,07,30,16,07,22.40
2012,07,30,16,08,22.50
2012,07,30,16,09,22.60
2012,07,30,16,10,22.70
2012,07,30,16,11,22.80
2012,07,30,16,12,22.90
2012,07,30,16,13,22.90
2012,07,30,16,14,22.90
2012,07,30,16,15,22.90
2012,07,30,16,16,22.90
2012,07,30,16,17,22.90
2012,07,30,16,18,22.80
2012,07,30,16,19,22.70
2012,07,30,16,20,22.60
2012,07,30,16,21,22.60
2012,07,30,16,22,22.60
2012,07,30,16,23,22.60
2012,07,30,16,24,22.60
2012,07,30,16,25,22.70
2012,07,30,16,26,22.90
2012,07,30,16,27,23.10
2012,07,30,16,28,23.20
2012,07,30,16,29,23.20
2012,07,30,16,30,23.30
2012,07,30,16,31,23.40
2012,07,30,16,32,23.50
2012,07,30,16,33,23.60
2012,07,30,16,34,23.60
2012,07,30,16,35,23.60
2012,07,30,16,36,23.60
2012,07,30,16,37,23.70
2012,07,30,16,38,23.70
2012,07,30,16,39,23.70
2012,07,30,16,40,23.70
2012,07,30,16,41,23.50
2012,07,30,16,42,23.40
2012,07,30,16,43,23.20
2012,07,30,16,44,23.10
2012,07,30,16,45,23.00
2012,07,30,16,46,22.90
2012,07,30,16,47,22.90
2012,07,30,16,48,22.80
2012,07,30,16,49,22.80
2012,07,30,16,50,22.80
2012,07,30,16,51,22.80
2012,07,30,16,52,22.80
2012,07,30,16,53,22.80
2012,07,30,16,54,22.80
2012,07,30,16,55,22.80
2012,07,30,16,56,22.80
2012,07,30,16,57,22.80
2012,07,30,16,58,22.70
2012,07,30,16,59,22.60
2012,07,30,17,00,22.50
2012,07,30,17,01,22.30
2012,07,30,17,02,22.30
2012,07,30,17,03,22.30
2012,07,30,17,04,22.20
2012,07,30,17,05,22.10
2012,07,30,17,06,22.10
2012,07,30,17,07,22.00
2012,07,30,17,08,21.90
2012,07,30,17,09,21.80
2012,07,30,17,10,21.80
2012,07,30,17,11,21.70
2012,07,30,17,12,21.60
2012,07,30,17,13,21.60
2012,07,30,17,14,21.60
2012,07,30,17,15,21.60
2012,07,30,17,16,21.60
2012,07,30,17,17,21.70
2012,07,30,17,18,21.80
2012,07,30,17,19,21.80